When you browse on this site, cookies collect data to enhance your experience and personalize the content and advertising you see.
Visit our Privacy Policy to learn more. By continuing to use the site, you agree to this use of cookies and data.
  • In Czech Republic
  • List of Countries
  • For 7 days
  • Water Temperature
  • Satellite Maps
  • Weather Map
  • Weather Widgets
  • user-avatar
    Login

    Hourly Weather Novoselovo

    Today, 21 January, Monday

    Time Temperature Precipitation Wind Pressure Humidity
    00:00 -10°C° 0 mm 3 mps 738 mmHg 93%
    01:00 -12°C° 0 mm 3 mps 738 mmHg 94%
    02:00 -10°C° 0 mm 3 mps 738 mmHg 92%
    03:00 -10°C° 0 mm 3 mps 738 mmHg 92%
    04:00 -12°C° 0 mm 3 mps 738 mmHg 91%
    05:00 -12°C° 0 mm 3 mps 738 mmHg 90%
    06:00 -12°C° 0 mm 3 mps 738 mmHg 90%
    07:00 -12°C° 0 mm 3 mps 738 mmHg 90%
    08:00 -12°C° 0 mm 3 mps 738 mmHg 89%
    09:00 -12°C° 0 mm 4 mps 738 mmHg 87%
    10:00 -12°C° 0 mm 4 mps 738 mmHg 86%
    11:00 -13°C° 0 mm 5 mps 739 mmHg 84%
    12:00 -12°C° 0 mm 4 mps 739 mmHg 84%
    13:00 -12°C° 0 mm 4 mps 739 mmHg 84%
    14:00 -14°C° 0 mm 4 mps 739 mmHg 84%
    15:00 -15°C° 0 mm 4 mps 739 mmHg 86%
    16:00 -15°C° 0 mm 3 mps 740 mmHg 89%
    17:00 -17°C° 0 mm 3 mps 740 mmHg 91%
    18:00 -17°C° 0 mm 3 mps 740 mmHg 93%
    19:00 -18°C° 0 mm 3 mps 740 mmHg 94%
    20:00 -19°C° 0 mm 3 mps 741 mmHg 95%
    21:00 -19°C° 0 mm 3 mps 741 mmHg 96%
    22:00 -21°C° 0 mm 3 mps 741 mmHg 97%
    23:00 -22°C° 0 mm 3 mps 742 mmHg 97%

    Tomorrow, 22 January, Tuesday

    Time Temperature Precipitation Wind Pressure Humidity
    00:00 -22°C° 0 mm 3 mps 742 mmHg 98%
    01:00 -22°C° 0 mm 3 mps 742 mmHg 98%
    02:00 -23°C° 0 mm 3 mps 743 mmHg 98%
    03:00 -23°C° 0 mm 3 mps 743 mmHg 98%
    04:00 -23°C° 0 mm 3 mps 743 mmHg 98%
    05:00 -23°C° 0 mm 3 mps 743 mmHg 97%
    06:00 -24°C° 0 mm 3 mps 744 mmHg 97%
    07:00 -23°C° 0 mm 2 mps 744 mmHg 97%
    08:00 -23°C° 0 mm 2 mps 744 mmHg 97%
    09:00 -21°C° 0 mm 2 mps 745 mmHg 96%
    10:00 -20°C° 0 mm 2 mps 745 mmHg 94%
    11:00 -18°C° 0 mm 2 mps 745 mmHg 93%
    12:00 -18°C° 0 mm 2 mps 745 mmHg 93%
    13:00 -17°C° 0 mm 2 mps 745 mmHg 93%
    14:00 -17°C° 0 mm 2 mps 745 mmHg 92%
    15:00 -18°C° 0 mm 2 mps 745 mmHg 94%
    16:00 -19°C° 0 mm 2 mps 745 mmHg 95%
    17:00 -20°C° 0 mm 2 mps 745 mmHg 96%
    18:00 -21°C° 0 mm 2 mps 745 mmHg 96%
    19:00 -21°C° 0 mm 2 mps 745 mmHg 97%
    20:00 -23°C° 0 mm 2 mps 745 mmHg 97%
    21:00 -23°C° 0 mm 2 mps 745 mmHg 97%
    22:00 -23°C° 0 mm 2 mps 745 mmHg 97%
    23:00 -23°C° 0 mm 2 mps 745 mmHg 97%

    Day after tomorrow, 23 January, Wednesday

    Time Temperature Precipitation Wind Pressure Humidity
    00:00 -23°C° 0 mm 2 mps 745 mmHg 97%
    01:00 -24°C° 0 mm 2 mps 745 mmHg 97%
    02:00 -21°C° 0 mm 1 mps 745 mmHg 97%
    03:00 -21°C° 0 mm 1 mps 745 mmHg 97%
    04:00 -24°C° 0 mm 2 mps 745 mmHg 98%
    05:00 -24°C° 0 mm 2 mps 745 mmHg 98%
    06:00 -23°C° 0 mm 2 mps 745 mmHg 99%
    07:00 -23°C° 0 mm 2 mps 745 mmHg 99%
    08:00 -23°C° 0 mm 2 mps 745 mmHg 99%
    09:00 -20°C° 0 mm 2 mps 745 mmHg 98%
    10:00 -18°C° 0 mm 2 mps 745 mmHg 97%
    11:00 -16°C° 0 mm 2 mps 745 mmHg 96%
    12:00 -15°C° 0 mm 2 mps 745 mmHg 96%
    13:00 -13°C° 0 mm 2 mps 745 mmHg 96%
    14:00 -13°C° 0 mm 3 mps 745 mmHg 96%
    15:00 -13°C° 0 mm 3 mps 745 mmHg 96%
    16:00 -13°C° 0 mm 3 mps 745 mmHg 96%
    17:00 -12°C° 0 mm 3 mps 745 mmHg 96%
    18:00 -13°C° 0 mm 3 mps 745 mmHg 96%
    19:00 -13°C° 0 mm 3 mps 745 mmHg 96%
    20:00 -13°C° 0 mm 3 mps 745 mmHg 95%
    21:00 -15°C° 0 mm 3 mps 745 mmHg 96%
    22:00 -16°C° 0 mm 3 mps 745 mmHg 96%
    23:00 -17°C° 0 mm 2 mps 745 mmHg 96%

    24 January, Thursday

    Time Temperature Precipitation Wind Pressure Humidity
    00:00 -18°C° 0 mm 2 mps 744 mmHg 96%
    01:00 -19°C° 0 mm 2 mps 744 mmHg 96%
    02:00 -19°C° 0 mm 2 mps 744 mmHg 95%
    03:00 -20°C° 0 mm 2 mps 744 mmHg 95%
    04:00 -18°C° 0 mm 1 mps 744 mmHg 95%
    05:00 -18°C° 0 mm 1 mps 743 mmHg 95%
    06:00 -18°C° 0 mm 1 mps 744 mmHg 93%
    07:00 -18°C° 0 mm 1 mps 744 mmHg 91%
    08:00 -18°C° 0 mm 1 mps 744 mmHg 90%
    09:00 -16°C° 0 mm 1 mps 744 mmHg 88%
    10:00 -14°C° 0 mm 1 mps 744 mmHg 86%
    11:00 -13°C° 0 mm 1 mps 744 mmHg 83%
    12:00 -12°C° 0 mm 1 mps 744 mmHg 84%
    13:00 -11°C° 0 mm 1 mps 743 mmHg 85%
    14:00 -11°C° 0 mm 1 mps 743 mmHg 86%
    15:00 -12°C° 0 mm 1 mps 743 mmHg 88%
    16:00 -13°C° 0 mm 1 mps 744 mmHg 90%
    17:00 -14°C° 0 mm 1 mps 744 mmHg 93%
    18:00 -14°C° 0 mm 1 mps 744 mmHg 94%
    19:00 -14°C° 0 mm 1 mps 745 mmHg 96%
    20:00 -14°C° 0 mm 1 mps 745 mmHg 97%
    21:00 -14°C° 0 mm 1 mps 745 mmHg 97%
    22:00 -13°C° 0 mm 1 mps 746 mmHg 97%
    23:00 -13°C° 0 mm 1 mps 746 mmHg 96%

    25 January, Friday

    Time Temperature Precipitation Wind Pressure Humidity
    00:00 -14°C° 0 mm 1 mps 746 mmHg 97%
    01:00 -15°C° 0 mm 1 mps 747 mmHg 97%
    02:00 -18°C° 0 mm 2 mps 747 mmHg 97%
    03:00 -19°C° 0 mm 2 mps 747 mmHg 97%
    04:00 -20°C° 0 mm 2 mps 747 mmHg 97%
    05:00 -21°C° 0 mm 2 mps 747 mmHg 97%
    06:00 -23°C° 0 mm 2 mps 748 mmHg 98%
    07:00 -23°C° 0 mm 2 mps 748 mmHg 98%
    08:00 -24°C° 0 mm 2 mps 748 mmHg 98%
    09:00 -21°C° 0 mm 2 mps 748 mmHg 97%
    10:00 -20°C° 0 mm 2 mps 749 mmHg 95%
    11:00 -19°C° 0 mm 2 mps 749 mmHg 94%
    12:00 -19°C° 0 mm 2 mps 749 mmHg 94%
    13:00 -18°C° 0 mm 2 mps 748 mmHg 93%
    14:00 -18°C° 0 mm 2 mps 748 mmHg 93%
    15:00 -19°C° 0 mm 2 mps 748 mmHg 94%
    16:00 -20°C° 0 mm 2 mps 748 mmHg 95%
    17:00 -23°C° 0 mm 2 mps 748 mmHg 97%
    18:00 -23°C° 0 mm 2 mps 748 mmHg 97%
    19:00 -24°C° 0 mm 2 mps 748 mmHg 97%
    20:00 -24°C° 0 mm 2 mps 748 mmHg 98%
    21:00 -25°C° 0 mm 2 mps 748 mmHg 97%
    22:00 -25°C° 0 mm 2 mps 748 mmHg 96%
    23:00 -25°C° 0 mm 2 mps 748 mmHg 96%

    26 January, Saturday

    Time Temperature Precipitation Wind Pressure Humidity
    00:00 -25°C° 0 mm 2 mps 748 mmHg 95%
    01:00 -25°C° 0 mm 2 mps 748 mmHg 94%
    02:00 -25°C° 0 mm 2 mps 748 mmHg 93%
    03:00 -25°C° 0 mm 2 mps 748 mmHg 93%
    04:00 -25°C° 0 mm 2 mps 748 mmHg 92%
    05:00 -25°C° 0 mm 2 mps 748 mmHg 91%
    06:00 -24°C° 0 mm 2 mps 748 mmHg 91%
    07:00 -24°C° 0 mm 2 mps 748 mmHg 91%
    08:00 -24°C° 0 mm 2 mps 748 mmHg 90%
    09:00 -23°C° 0 mm 2 mps 747 mmHg 89%
    10:00 -21°C° 0 mm 2 mps 747 mmHg 87%
    11:00 -20°C° 0 mm 2 mps 747 mmHg 86%
    12:00 -19°C° 0 mm 2 mps 747 mmHg 87%
    13:00 -19°C° 0 mm 2 mps 746 mmHg 87%
    14:00 -18°C° 0 mm 2 mps 746 mmHg 88%
    15:00 -19°C° 0 mm 2 mps 746 mmHg 90%
    16:00 -21°C° 0 mm 2 mps 746 mmHg 91%
    17:00 -23°C° 0 mm 2 mps 746 mmHg 92%
    18:00 -24°C° 0 mm 2 mps 746 mmHg 92%
    19:00 -24°C° 0 mm 2 mps 745 mmHg 92%
    20:00 -24°C° 0 mm 2 mps 745 mmHg 91%
    21:00 -25°C° 0 mm 2 mps 745 mmHg 91%
    22:00 -25°C° 0 mm 2 mps 745 mmHg 90%
    23:00 -25°C° 0 mm 2 mps 745 mmHg 90%
    Show more